Regional Weather Roundup
Issued by NWS

Home | Current Version | Previous Version | Text Only | Print | Product List | Glossary On
Versions: 1 2 3 4 5 6 7 8 9 10 11 12 13 14 15 16 17 18 19 20 21 22 23 24 25 26 27 28 29 30 31 32 33 34 35 36 37 38 39 40 41 42 43 44
000
ASUS46 KSEW 270110
RWRWA

WASHINGTON REGIONAL WEATHER ROUNDUP
NATIONAL WEATHER SERVICE SEATTLE WA
500 PM PST MON JAN 26 2015

NOTE:"FAIR" INDICATES FEW OR NO CLOUDS BELOW 12,000 FEET WITH NO
SIGNIFICANT WEATHER AND/OR OBSTRUCTIONS TO VISIBILITY.

WAZ505-507>509-270200-
SEATTLE, TACOMA, EVERETT, AND VICINITY

CITY           SKY/WX    TMP DP  RH WIND       PRES   REMARKS
EVERETT        PTCLDY    59  43  55 S12       29.90S
BOEING FIELD   PTCLDY    59  46  62 SE3       29.91S
RENTON         CLEAR     57  47  69 CALM      29.91S
SEATAC AIRPORT PTCLDY    57  46  66 SW7       29.92S
JBLM-MCCHORD   PTCLDY    58  50  75 NW6       29.92R
PUYALLUP       FAIR      55  50  82 CALM      29.93R
BREMERTON      PTCLDY    57  48  72 S9        29.93S
JBLM-FT LEWIS  PTCLDY    57  51  79 W8        29.91R
TACOMA NARROWS PTCLDY    57  46  66 W5        29.92R
$$

WAZ001-503-506-510-514-515-270200-
NORTH INTERIOR

CITY           SKY/WX    TMP DP  RH WIND       PRES   REMARKS
BELLINGHAM     PTCLDY    51  44  77 W6        29.88R
FRIDAY HARBOR  MOCLDY    47  45  93 CALM      29.92R
EASTSOUND      CLOUDY    46  46 100 CALM      29.89R FOG
PORT ANGELES   CLOUDY    48  46  93 W8        29.92R
NAS WHIDBEY    FOG       48  46  93 SW5       29.92R VSB 1/4
ARLINGTON      PTCLDY    61  43  51 S13       29.89F
BURLINGTON     CLEAR     55  48  76 SW3       29.89S
$$

WAZ020-022-039-040-504-511-512-270200-
SOUTHWEST INTERIOR

CITY           SKY/WX    TMP DP  RH WIND       PRES   REMARKS
SHELTON        PTCLDY    55  48  77 SW16      29.92R
OLYMPIA        PTCLDY    55  47  74 NW5       29.93R
CHEHALIS       FAIR      59  46  63 CALM      29.93R
KELSO          PTCLDY    54  45  71 SE7       29.98S
VANCOUVER      MOCLDY    51  42  71 E6        29.96S
SCAPPOOSE, OR  PTCLDY    50  46  86 NW3       29.96S
PORTLAND, OR   MOCLDY    50  43  77 E9        29.96F
$$

WAZ021-516-517-270200-
WASHINGTON COAST

CITY           SKY/WX    TMP DP  RH WIND       PRES   REMARKS
FORKS          CLOUDY    51  51 100 S7        29.93S FOG
HOQUIAM        CLOUDY    52  52 100 SW9       29.97R FOG
ASTORIA, OR    CLOUDY    54  50  86 SW13      29.97R
$$

WAZ019-023-024-040-518-519-270200-
CASCADE MOUNTAINS AND COLUMBIA GORGE

CITY           SKY/WX    TMP DP  RH WIND       PRES   REMARKS
TROUTDALE, OR  MOCLDY    50  41  71 E12       29.95F
THE DALLES, OR CLOUDY    43  38  82 E5        30.04F
$$

WAZ026-027-041>044-520-521-270200-
EAST SLOPES

CITY           SKY/WX    TMP DP  RH WIND       PRES   REMARKS
OMAK           FOG       33  32  96 CALM      30.03S VSB 1/4
WENATCHEE      MOCLDY    37  33  85 NW3       30.02S
ELLENSBURG     FOG       38  36  92 SE3       29.99S VSB<1/4
YAKIMA         FOG       38  36  92 CALM      30.04S VSB 1/2
$$

WAZ028-034-035-270200-
COLUMBIA BASIN

CITY           SKY/WX    TMP DP  RH WIND       PRES   REMARKS
EPHRATA        MOCLDY    40  37  89 CALM      30.01R
MOSES LAKE     FOG       38  38 100 E6        30.02F VSB 1/4
PASCO          FOG       40  39  97 NE5       30.05F VSB 1
HERMISTON, OR  CLOUDY    38  37  97 CALM      30.03F FOG
$$

WAZ036>038-270200-
NORTHEAST WASHINGTON

CITY           SKY/WX    TMP DP  RH WIND       PRES   REMARKS
SPOKANE GEIGER MOCLDY    42  39  89 CALM      30.01S
SPOKANE FELTS  MOCLDY    43  37  79 CALM      30.02R
FAIRCHILD AFB  PTCLDY    43  43 100 S2        30.00S
COEURDALENE,ID PTCLDY    39  36  87 NE9       30.01R
DEER PARK      PTCLDY    38  36  92 CALM      30.02S
$$

WAZ029>033-270200-
SOUTHEAST WASHINGTON

CITY           SKY/WX    TMP DP  RH WIND       PRES   REMARKS
PULLMAN        MOCLDY    51  39  63 NE8       30.04S
LEWISTON, ID   MOCLDY    57  38  48 SW14      30.00S
WALLA WALLA    FOG       39  37  92 N6        30.01F VSB<1/4
PENDLETON, OR  FOG       37  36  96 CALM      29.99F VSB<1/4
$$


USA.gov is the U.S. government's official web portal to all federal, state and local government web resources and services.